Flag for Netherlands Weather past 2 weeks in Amersfoort, Netherlands

Now
59 °F

Mostly cloudy.


Feels Like: 56 °F
Forecast: 52 / 62 °F
Wind: 15 mph from Southwest

Location: Deelen

Current Time: Jul 8, 2015 at 8:51:56 AM

Latest Report: Jul 8, 2015 at 7:55 AM


Visibility: N/A

Pressure: 29.74 "Hg

Humidity: 82%

Dew point: 54 °F

Location of AmersfoortLocation

Historic Weather in Amersfoort — Graph

°F

Amersfoort temperature yesterday

Maximum temperature yesterday: 81 °F (at 12:55 PM)
Minimum temperature yesterday: 59 °F (at 12:25 AM)
Average temperature yesterday: 69 °F

Past Weeks' High & Low Weather Summary

 TemperatureHumidityPressure
High97 °F (Jul 2, 3:25 PM)100% (Jun 23, 7:25 AM)30.24 "Hg (Jun 23, 7:25 AM)
Low45 °F (Jun 28, 5:25 AM)26% (Jul 1, 4:25 PM)29.71 "Hg (Jul 7, 6:55 PM)
Average68 °F69%30.07 "Hg
* Reported Jun 23 7:25 AM — Jul 8 7:25 AM, Amersfoort, Weather by CustomWeather, © 2015

Note: Actual official high and low records may vary slightly from our data, if they occured in-between our weather recording intervals... More about our weather records

Advertising

Amersfoort weather history for previous 24 hours

 ConditionsComfort  
Time TempWeatherWind HumidityBarometerVisibility
7:25 AM
Wed, Jul 8
59 °FMostly cloudy.13 mph82%29.74 "HgN/A
6:55 AM59 °FBroken clouds.10 mph82%29.74 "HgN/A
6:25 AM59 °FPartly sunny.14 mph82%29.74 "HgN/A
5:55 AM59 °FPassing clouds.13 mph82%29.74 "HgN/A
5:25 AM59 °FMostly cloudy.12 mph82%29.74 "HgN/A
4:55 AM59 °FPartly cloudy.13 mph82%29.74 "HgN/A
4:25 AM59 °FPassing clouds.13 mph82%29.74 "HgN/A
3:55 AM61 °FMostly cloudy.14 mph77%29.71 "HgN/A
3:25 AM61 °FOvercast.16 mph77%29.71 "HgN/A
2:55 AM61 °FMostly cloudy.15 mph77%29.71 "HgN/A
2:25 AM61 °FMostly cloudy.14 mph72%29.71 "HgN/A
1:55 AM63 °FPassing clouds.16 mph64%29.71 "HgN/A
1:25 AM63 °FPassing clouds.12 mph68%29.71 "HgN/A
12:55 AM61 °FPassing clouds.8 mph72%29.71 "HgN/A
12:25 AM63 °FOvercast.13 mph68%29.71 "HgN/A
11:55 PM
Tue, Jul 7
64 °FPassing clouds.14 mph68%29.71 "HgN/A
11:25 PM64 °FPassing clouds.12 mph73%29.71 "HgN/A
10:55 PM66 °FPassing clouds.10 mph68%29.71 "HgN/A
10:25 PM68 °FBroken clouds.14 mph64%29.71 "HgN/A
9:55 PM68 °FPassing clouds.13 mph64%29.71 "HgN/A
9:25 PM68 °FPassing clouds.17 mph69%29.71 "HgN/A
8:55 PM70 °FScattered clouds.10 mph69%29.71 "HgN/A
8:25 PM70 °FScattered clouds.15 mph69%29.71 "HgN/A
7:55 PM72 °FBroken clouds.13 mph65%29.71 "HgN/A
7:25 PM72 °FBroken clouds.12 mph65%29.71 "HgN/A
6:55 PM72 °FOvercast.16 mph65%29.71 "HgN/A
6:25 PM73 °FPartly sunny.14 mph61%29.74 "HgN/A
5:55 PM73 °FScattered clouds.15 mph57%29.74 "HgN/A
5:25 PM75 °FPartly sunny.16 mph54%29.74 "HgN/A
4:55 PM75 °FPassing clouds.15 mph57%29.74 "HgN/A
4:25 PM77 °FPassing clouds.17 mph51%29.74 "HgN/A
3:55 PM77 °FPartly sunny.9 mph51%29.74 "HgN/A
3:25 PM75 °FPartly sunny.12 mph57%29.74 "HgN/A
2:55 PM75 °FLight rain. Broken clouds.8 mph69%29.74 "HgN/A
2:25 PM77 °FPartly sunny.10 mph57%29.77 "HgN/A
1:55 PM79 °FScattered clouds.7 mph51%29.77 "HgN/A
1:25 PM79 °FBroken clouds.8 mph51%29.77 "HgN/A
12:55 PM81 °FPartly sunny.7 mph45%29.77 "HgN/A
12:25 PM77 °FPartly sunny.6 mph54%29.80 "HgN/A
11:55 AM77 °FMostly cloudy.6 mph54%29.80 "HgN/A
11:25 AM79 °FPartly sunny.6 mph51%29.83 "HgN/A
10:55 AM75 °FPartly sunny.6 mph54%29.83 "HgN/A
10:25 AM73 °FOvercast.7 mph57%29.83 "HgN/A
9:55 AM73 °FOvercast.7 mph57%29.83 "HgN/A
9:25 AM72 °FOvercast.7 mph61%29.86 "HgN/A
8:55 AM72 °FOvercast.8 mph61%29.89 "HgN/A
8:25 AM72 °FOvercast.6 mph57%29.89 "HgN/A
Weather by CustomWeather, © 2015

See weather overviewHow to use our weather pages